LHB4 LFTZ-LFKF

Flight info

Callsign LHB4
Flight time 0h 37m
Altitude 19000
Route VAREK
Aircraft C750/M-SBDE3FGHRWXY/S

Departure

Time 2026-04-25 10:01
Airport La Môle Airport (LFTZ)

Arrival

Time 2026-04-25 10:39
Airport Figari Sud-Corse Airport (LFKF)
Time Latitude Longitude Altitude Speed Heading
2026-04-25 09:44 43.20388 6.47592 59 ft 0 kts 151°
2026-04-25 09:57 43.20386 6.47593 60 ft 2 kts 152°
2026-04-25 09:57 43.20364 6.47594 58 ft 3 kts 217°
2026-04-25 09:57 43.20352 6.47568 57 ft 3 kts 245°
2026-04-25 09:58 43.20343 6.47543 60 ft 3 kts 243°
2026-04-25 09:58 43.20336 6.47523 55 ft 2 kts 242°
2026-04-25 09:58 43.20320 6.47505 60 ft 4 kts 193°
2026-04-25 09:58 43.20294 6.47533 60 ft 6 kts 115°
2026-04-25 09:59 43.20301 6.47571 60 ft 0 kts 62°
2026-04-25 10:00 43.20314 6.47607 59 ft 24 kts 62°
2026-04-25 10:01 43.20578 6.48288 53 ft 136 kts 62°
2026-04-25 10:01 43.21061 6.49529 515 ft 155 kts 63°
2026-04-25 10:01 43.21641 6.50820 1224 ft 164 kts 56°
2026-04-25 10:01 43.22329 6.52191 1801 ft 185 kts 57°
2026-04-25 10:02 43.22689 6.54006 2136 ft 218 kts 90°
2026-04-25 10:02 43.22436 6.56126 2741 ft 226 kts 103°
2026-04-25 10:02 43.22118 6.58245 3644 ft 232 kts 100°
2026-04-25 10:02 43.21864 6.60552 4167 ft 260 kts 101°
2026-04-25 10:03 43.21552 6.63093 4163 ft 273 kts 97°
2026-04-25 10:03 43.21329 6.65693 4126 ft 282 kts 97°
2026-04-25 10:03 43.21048 6.68384 5222 ft 278 kts 99°
2026-04-25 10:03 43.20736 6.70997 6352 ft 283 kts 99°
2026-04-25 10:04 43.20427 6.73682 7324 ft 287 kts 98°
2026-04-25 10:04 43.20128 6.76385 8471 ft 288 kts 98°
2026-04-25 10:04 43.19821 6.79124 9536 ft 293 kts 99°
2026-04-25 10:04 43.19504 6.81906 10433 ft 301 kts 99°
2026-04-25 10:05 43.19168 6.84851 10746 ft 327 kts 99°
2026-04-25 10:05 43.18803 6.88061 10880 ft 354 kts 99°
2026-04-25 10:05 43.18417 6.91457 11467 ft 363 kts 99°
2026-04-25 10:05 43.18025 6.94880 12303 ft 365 kts 99°
2026-04-25 10:06 43.17628 6.98335 13065 ft 368 kts 99°
2026-04-25 10:06 43.17226 7.01825 13778 ft 374 kts 99°
2026-04-25 10:06 43.16816 7.05376 14398 ft 379 kts 99°
2026-04-25 10:06 43.16409 7.08899 15130 ft 380 kts 99°
2026-04-25 10:07 43.15986 7.12543 15755 ft 385 kts 99°
2026-04-25 10:07 43.15561 7.16188 16387 ft 390 kts 99°
2026-04-25 10:07 43.15138 7.19812 17118 ft 392 kts 99°
2026-04-25 10:07 43.14705 7.23509 17855 ft 396 kts 98°
2026-04-25 10:08 43.14264 7.27265 18495 ft 402 kts 98°
2026-04-25 10:08 43.13810 7.31116 19067 ft 409 kts 98°
2026-04-25 10:08 43.13351 7.34999 19117 ft 429 kts 98°
2026-04-25 10:08 43.12858 7.39177 19128 ft 449 kts 98°
2026-04-25 10:09 43.12358 7.43392 19128 ft 458 kts 98°
2026-04-25 10:09 43.11659 7.47657 19101 ft 463 kts 107°
2026-04-25 10:09 43.10431 7.51712 19105 ft 465 kts 116°
2026-04-25 10:09 43.08714 7.55460 19113 ft 463 kts 126°
2026-04-25 10:10 43.06574 7.58747 19119 ft 462 kts 136°
2026-04-25 10:10 43.04076 7.61482 19113 ft 460 kts 146°
2026-04-25 10:10 43.01271 7.63617 19118 ft 463 kts 155°
2026-04-25 10:10 42.98253 7.65190 19128 ft 466 kts 160°
2026-04-25 10:11 42.95213 7.66687 19131 ft 465 kts 160°
2026-04-25 10:11 42.92186 7.68203 19137 ft 462 kts 160°
2026-04-25 10:11 42.89168 7.69707 19137 ft 462 kts 160°
2026-04-25 10:11 42.86122 7.71204 19135 ft 466 kts 160°
2026-04-25 10:12 42.83067 7.72707 19140 ft 467 kts 160°
2026-04-25 10:12 42.80020 7.74215 19139 ft 467 kts 160°
2026-04-25 10:12 42.73948 7.77210 19140 ft 463 kts 160°
2026-04-25 10:13 42.70917 7.78699 19142 ft 462 kts 160°
2026-04-25 10:13 42.67883 7.80192 19142 ft 463 kts 160°
2026-04-25 10:13 42.64848 7.81686 19143 ft 464 kts 160°
2026-04-25 10:13 42.61808 7.83176 19141 ft 466 kts 160°
2026-04-25 10:14 42.58754 7.84671 19145 ft 467 kts 160°
2026-04-25 10:14 42.55716 7.86159 19146 ft 463 kts 160°
2026-04-25 10:14 42.52676 7.87647 19149 ft 463 kts 160°
2026-04-25 10:14 42.49634 7.89133 19146 ft 466 kts 160°
2026-04-25 10:15 42.46579 7.90623 19150 ft 468 kts 160°
2026-04-25 10:15 42.43528 7.92112 19149 ft 465 kts 160°
2026-04-25 10:15 42.40484 7.93594 19151 ft 464 kts 160°
2026-04-25 10:15 42.37449 7.95071 19149 ft 464 kts 160°
2026-04-25 10:16 42.34433 7.96609 19133 ft 462 kts 156°
2026-04-25 10:16 42.31640 7.98713 19139 ft 457 kts 146°
2026-04-25 10:16 42.29144 8.01384 19136 ft 459 kts 137°
2026-04-25 10:16 42.26952 8.04512 19139 ft 458 kts 132°
2026-04-25 10:17 42.24809 8.07701 19147 ft 459 kts 132°
2026-04-25 10:17 42.22651 8.10867 19158 ft 458 kts 132°
2026-04-25 10:17 42.20489 8.14044 19157 ft 460 kts 132°
2026-04-25 10:17 42.18358 8.17202 19159 ft 461 kts 132°
2026-04-25 10:18 42.16172 8.20434 19151 ft 460 kts 132°
2026-04-25 10:18 42.14004 8.23615 19154 ft 461 kts 132°
2026-04-25 10:18 42.11834 8.26798 19154 ft 461 kts 132°
2026-04-25 10:18 42.09729 8.29892 18941 ft 430 kts 132°
2026-04-25 10:19 42.07812 8.32708 18567 ft 398 kts 132°
2026-04-25 10:19 42.05945 8.35444 18163 ft 386 kts 132°
2026-04-25 10:19 42.04167 8.38047 17803 ft 383 kts 133°
2026-04-25 10:19 42.02365 8.40683 17447 ft 382 kts 133°
2026-04-25 10:20 42.00574 8.43302 17094 ft 379 kts 133°
2026-04-25 10:20 41.98787 8.45912 16738 ft 380 kts 133°
2026-04-25 10:20 41.97003 8.48515 16384 ft 378 kts 133°
2026-04-25 10:20 41.95227 8.51103 16034 ft 377 kts 133°
2026-04-25 10:21 41.93464 8.53671 15680 ft 376 kts 133°
2026-04-25 10:21 41.91702 8.56235 15327 ft 371 kts 133°
2026-04-25 10:21 41.89950 8.58782 14982 ft 370 kts 133°
2026-04-25 10:21 41.88201 8.61324 14637 ft 369 kts 133°
2026-04-25 10:22 41.86455 8.63857 14292 ft 368 kts 132°
2026-04-25 10:22 41.85303 8.65529 14059 ft 367 kts 132°
2026-04-25 10:22 41.82985 8.68888 13579 ft 366 kts 133°
2026-04-25 10:22 41.81260 8.71385 13233 ft 364 kts 133°
2026-04-25 10:23 41.79545 8.73866 12894 ft 362 kts 133°
2026-04-25 10:23 41.77842 8.76326 12558 ft 360 kts 133°
2026-04-25 10:23 41.76227 8.78881 12130 ft 357 kts 127°
2026-04-25 10:23 41.74729 8.81437 11776 ft 337 kts 129°
2026-04-25 10:24 41.73299 8.83780 11463 ft 313 kts 129°
2026-04-25 10:24 41.71970 8.85988 11173 ft 299 kts 128°
2026-04-25 10:24 41.70688 8.88157 10880 ft 295 kts 128°
2026-04-25 10:24 41.69415 8.90304 10585 ft 294 kts 128°
2026-04-25 10:25 41.68141 8.92432 10297 ft 292 kts 128°
2026-04-25 10:25 41.66874 8.94551 10019 ft 291 kts 128°
2026-04-25 10:25 41.65613 8.96660 9724 ft 290 kts 128°
2026-04-25 10:25 41.64357 8.98763 9444 ft 289 kts 128°
2026-04-25 10:26 41.63106 9.00854 9174 ft 287 kts 128°
2026-04-25 10:26 41.62280 9.02232 9002 ft 287 kts 128°
2026-04-25 10:26 41.61037 9.04307 8732 ft 285 kts 128°
2026-04-25 10:26 41.59798 9.06372 8465 ft 284 kts 128°
2026-04-25 10:27 41.58565 9.08428 8204 ft 283 kts 128°
2026-04-25 10:27 41.57350 9.10452 7944 ft 273 kts 128°
2026-04-25 10:27 41.56191 9.12382 7660 ft 260 kts 128°
2026-04-25 10:27 41.55104 9.14188 7623 ft 239 kts 128°
2026-04-25 10:28 41.54104 9.15854 7587 ft 221 kts 128°
2026-04-25 10:28 41.53176 9.17400 7551 ft 208 kts 128°
2026-04-25 10:28 41.52287 9.18882 7523 ft 203 kts 128°
2026-04-25 10:28 41.51405 9.20351 7466 ft 204 kts 128°
2026-04-25 10:29 41.50513 9.21835 7243 ft 205 kts 128°
2026-04-25 10:29 41.49624 9.23313 6973 ft 204 kts 128°
2026-04-25 10:29 41.48740 9.24783 6711 ft 203 kts 128°
2026-04-25 10:29 41.48047 9.26396 6362 ft 203 kts 103°
2026-04-25 10:30 41.47840 9.28232 6162 ft 200 kts 98°
2026-04-25 10:30 41.47620 9.30057 5900 ft 198 kts 99°
2026-04-25 10:30 41.47393 9.31866 5640 ft 197 kts 99°
2026-04-25 10:30 41.47173 9.33666 5373 ft 197 kts 99°
2026-04-25 10:31 41.47156 9.35493 5057 ft 205 kts 75°
2026-04-25 10:31 41.47887 9.37073 4944 ft 197 kts 42°
2026-04-25 10:31 41.49063 9.37978 4929 ft 201 kts 22°
2026-04-25 10:31 41.50369 9.38660 4772 ft 200 kts 21°
2026-04-25 10:32 41.51644 9.39335 4589 ft 195 kts 22°
2026-04-25 10:32 41.52901 9.40008 4405 ft 194 kts 22°
2026-04-25 10:32 41.54164 9.40613 4203 ft 193 kts 11°
2026-04-25 10:32 41.55477 9.40417 4014 ft 191 kts 339°
2026-04-25 10:33 41.56533 9.39386 3855 ft 190 kts 308°
2026-04-25 10:33 41.57060 9.37790 3697 ft 189 kts 279°
2026-04-25 10:33 41.57021 9.36069 3576 ft 188 kts 264°
2026-04-25 10:33 41.56905 9.34290 3419 ft 190 kts 265°
2026-04-25 10:34 41.56798 9.32548 3235 ft 187 kts 265°
2026-04-25 10:34 41.56688 9.30828 3066 ft 184 kts 265°
2026-04-25 10:34 41.56577 9.29137 2891 ft 180 kts 265°
2026-04-25 10:34 41.56469 9.27493 2731 ft 177 kts 265°
2026-04-25 10:35 41.56363 9.25877 2570 ft 173 kts 265°
2026-04-25 10:35 41.56260 9.24297 2423 ft 168 kts 265°
2026-04-25 10:35 41.56158 9.22745 2264 ft 168 kts 265°
2026-04-25 10:35 41.56057 9.21199 2134 ft 168 kts 265°
2026-04-25 10:36 41.55874 9.19688 1949 ft 166 kts 250°
2026-04-25 10:36 41.55268 9.18387 1699 ft 165 kts 235°
2026-04-25 10:36 41.54629 9.17168 1270 ft 150 kts 236°
2026-04-25 10:36 41.54090 9.16111 1067 ft 130 kts 235°
2026-04-25 10:37 41.53588 9.15129 853 ft 125 kts 234°
2026-04-25 10:37 41.53106 9.14185 706 ft 123 kts 235°
2026-04-25 10:37 41.52607 9.13265 511 ft 123 kts 230°
2026-04-25 10:37 41.52076 9.12404 362 ft 119 kts 227°
2026-04-25 10:38 41.51520 9.11594 261 ft 125 kts 224°
2026-04-25 10:38 41.50945 9.10742 134 ft 125 kts 224°
2026-04-25 10:38 41.50390 9.09944 71 ft 106 kts 228°
2026-04-25 10:38 41.49969 9.09322 72 ft 61 kts 227°
2026-04-25 10:39 41.49837 9.09104 64 ft 11 kts 245°
2026-04-25 10:39 41.49811 9.09099 58 ft 9 kts 52°
2026-04-25 10:39 41.49923 9.09257 71 ft 35 kts 47°
2026-04-25 10:39 41.50089 9.09495 71 ft 34 kts 47°
2026-04-25 10:40 41.50191 9.09699 64 ft 15 kts 123°
2026-04-25 10:40 41.50138 9.09770 68 ft 7 kts 137°
2026-04-25 10:40 41.50124 9.09787 68 ft 1 kts 137°
2026-04-25 10:40 41.50116 9.09797 68 ft 7 kts 137°
2026-04-25 10:41 41.50102 9.09865 68 ft 9 kts 58°
2026-04-25 10:41 41.50146 9.09931 68 ft 12 kts 57°
2026-04-25 10:41 41.50104 9.10007 65 ft 3 kts 151°
2026-04-25 10:41 41.50085 9.09993 68 ft 4 kts 224°
2026-04-25 10:42 41.50078 9.09983 64 ft 0 kts 228°